Location: CAO
(44.5093°N, 80.3921°W)
Time: 18:08:55
(UTC-05:00)

BlueWalker 3 - Visible Passes

Search period start: 17 January 2026 00:00
Search period end: 27 January 2026 00:00
Orbit: 451 x 463 km, 53.2° (Epoch: 17 January)

Date Brightness Start Highest point End Pass type
(mag) Time Alt. Az. Time Alt. Az. Time Alt. Az.
18 Jan 4.1 18:47:24 10° SSE 18:47:52 11° SSE 18:47:52 11° SSE visible
19 Jan 4.1 19:47:02 10° SW 19:48:12 19° SW 19:48:12 19° SW visible
20 Jan 2.3 19:11:47 10° SW 19:14:39 45° S 19:14:39 45° S visible
21 Jan 2.4 18:36:33 10° SSW 18:39:54 39° SE 18:41:02 30° E visible
21 Jan 4.8 20:14:04 10° W 20:14:47 15° W 20:14:47 15° W visible
22 Jan 2.8 18:01:25 10° SSW 18:04:35 30° SE 18:07:19 13° ENE visible
22 Jan 3.2 19:38:32 10° W 19:41:04 35° WNW 19:41:04 35° WNW visible
23 Jan 2.2 19:03:01 10° WSW 19:06:32 54° NNW 19:07:16 43° NNE visible
24 Jan 1.9 18:27:32 10° WSW 18:31:05 67° NNW 18:33:25 20° NE visible
24 Jan 4.6 20:06:10 10° WNW 20:07:09 15° NW 20:07:09 15° NW visible
25 Jan 1.8 17:52:04 10° WSW 17:55:39 84° NW 17:59:14 10° NE visible
25 Jan 3.5 19:30:32 10° WNW 19:33:14 24° NNW 19:33:14 24° NNW visible
26 Jan 3.3 18:54:53 10° WNW 18:57:59 27° NNW 18:59:16 22° NNE visible
